Regional Weather Roundup
Issued by NWS Albany, NY

Home | Current Version | Previous Version | Graphics & Text | Print | Product List | Glossary Off
Versions: 1 2 3 4 5 6 7 8 9 10 11 12 13 14 15 16 17 18 19 20 21 22 23 24 25 26 27 28 29 30 31 32 33 34 35 36 37 38 39 40 41 42 43 44 45 46 47 48 49 50

265
ASUS41 KALY 051810
RWRALY

NEW YORK STATE HOURLY WEATHER ROUNDUP
NATIONAL WEATHER SERVICE ALBANY NY
100 PM EST FRI FEB 05 2016

NOTE: "FAIR" INDICATES FEW OR NO CLOUDS BELOW 12,000 FEET WITH NO
SIGNIFICANT WEATHER AND/OR NO OBSTRUCTIONS TO VISIBILITY.

NYZ032-033-038>043-046>054-057>066-NYZ062>081-051900-
EAST


CITY           SKY/WX    TMP DP  RH WIND       PRES   REMARKS
ALBANY         CLOUDY    38  13  35 N18G24    30.08F WCI  28
GLENS FALLS    CLOUDY    33  21  61 NE7       30.09F WCI  27
POUGHKEEPSIE   CLOUDY    40  14  34 N12G22    30.06F WCI  33
NEWBURGH       PTSUNNY   37  19  48 N12G23    30.06F WCI  30
MONTGOMERY     CLOUDY    39  15  37 N16G25    30.05F WCI  30
WHITE PLAINS   CLOUDY    34  24  67 NW18G25   30.01F WCI  23
ISLIP          LGT SNOW  32  30  92 N25G38    29.98F VSB 3/4 WCI  19
NEW YORK CITY  CLOUDY    36  27  69 NW16      30.06F WCI  26
CENTRAL PARK   CLOUDY    33  29  85 VRB5      30.09S FOG     WCI  29
$$

NYZ005>009-017-018-044>046-055-056-051900-
CENTRAL


CITY           SKY/WX    TMP DP  RH WIND       PRES   REMARKS
FULTON         SUNNY     33  16  49 W14G21    30.26F WCI  23
SYRACUSE       MOSUNNY   32  16  51 W17G24    30.24F WCI  21
ROME           SUNNY     34  15  46 W18G24    30.20S WCI  23
ELMIRA         LGT SNOW  31  24  75 N8        30.23F WCI  23
BINGHAMTON     CLOUDY    28  17  63 NW16G22   30.14R WCI  16
MONTICELLO     CLOUDY    34  14  44 NW22G33   30.06S WCI  22
$$

NYZ026>034-041>043-051900-
NORTH


CITY           SKY/WX    TMP DP  RH WIND       PRES   REMARKS
WATERTOWN      SUNNY     29  14  53 NW12      30.25F WCI  19
FORT DRUM      NOT AVBL
MASSENA        MOSUNNY   28  14  55 NW12      30.23F WCI  18
SARANAC LAKE   FLURRIES  22  12  65 NW8G17    30.06F WCI  12
PLATTSBURGH    MOSUNNY   30  15  53 N15       30.14F WCI  19
$$

NYZ001>004-010>016-019>021-051900-
WEST


CITY           SKY/WX    TMP DP  RH WIND       PRES   REMARKS
NIAGARA FALLS  FLURRIES  32  24  72 CALM      30.28F
BUFFALO        LGT SNOW  31  23  72 W3        30.28F
DUNKIRK        CLOUDY    29  20  69 W10       30.32F WCI  20
JAMESTOWN      CLOUDY    25  14  63 W9        30.25S WCI  15
WELLSVILLE     LGT SNOW  27  21  78 NW8       30.20R WCI  19
ROCHESTER      PTSUNNY   32  21  64 NW10      30.28F WCI  24
PENN YAN       CLOUDY    30  19  63 NW7       30.25F WCI  23
$$

             KEY
       WCI = WIND CHILL INDEX
       VSB = VISIBILITY
       HX  = HEAT INDEX
$$




USA.gov is the U.S. government's official web portal to all federal, state and local government web resources and services.